Cortez, CO

3:47 AM MST on November 22, 2019 (GMT -0700)
Cortez Municipal

Weather History for KCEZ - September, 2019

Change the Weather History Date:

Friday, September 20, 2019

  Actual Average Record
Temperature  
Mean Temperature 60 °F 59 °F  
Max Temperature 77 °F 76 °F 89 °F (2014)
Min Temperature 42 °F 41 °F 34 °F (2006)
Degree Days  
Heating Degree Days 5 7  
Month to date heating degree days 40 75  
Since 1 July heating degree days 40 87  
Cooling Degree Days 0 0  
Month to date cooling degree days 67 16  
Year to date cooling degree days 547 425  
Growing Degree Days 12 (Base 50)    
Moisture  
Dew Point 33 °F    
Average Humidity 39    
Maximum Humidity 63    
Minimum Humidity 15    
Precipitation  
Precipitation 0.00 in 0.07 in 0.64 in (2004)
Month to date precipitation 0.17 1.18  
Year to date precipitation 9.95 9.62  
Sea Level Pressure  
Sea Level Pressure 29.79 in    
Wind  
Wind Speed 9 mph (SSW)    
Max Wind Speed 26 mph    
Max Gust Speed 38 mph    
Visibility 10 miles    
Events      
T = Trace of Precipitation, MM = Missing Value Source: NWS Daily Summary

Daily Weather History Graph

Daily Weather History Graph

Search for Another Location

Airport or City:

Astronomy

Sep. 20, 2019 Rise Set
Actual Time 7:00 AM MDT 7:14 PM MDT
Civil Twilight 6:34 AM MDT 7:40 PM MDT
Nautical Twilight 6:03 AM MDT 8:11 PM MDT
Astronomical Twilight 5:32 AM MDT 8:42 PM MDT
Moon 11:14 PM MDT (9/20) 1:01 PM MDT (9/20)
Length of Visible Light 13h 06m
Length of Day
12h 14m
Waning Gibbous, 64% of the Moon is Illuminated
Sep 20
Waning Gibbous
Sep 21
Last Quarter
Sep 28
New
Oct 5
First Quarter
Oct 13
Full

Hourly Weather History & Observations

Time (MDT) Temp. Windchill Dew Point Humidity Pressure Visibility Wind Dir Wind Speed Gust Speed Precip Events Conditions
12:53 AM 64.0 °F - 43.0 °F 46% 29.74 in 10.0 mi South 6.9 mph - N/A   Partly Cloudy
1:53 AM 63.0 °F - 43.0 °F 48% 29.74 in 10.0 mi South 8.1 mph - N/A   Clear
2:53 AM 60.1 °F - 42.1 °F 51% 29.75 in 10.0 mi South 4.6 mph - N/A   Clear
3:53 AM 61.0 °F - 42.1 °F 50% 29.74 in 10.0 mi Variable 5.8 mph - N/A   Clear
4:53 AM 52.0 °F - 39.9 °F 63% 29.79 in 10.0 mi Calm Calm - N/A   Clear
5:53 AM 50.0 °F - 37.9 °F 63% 29.79 in 10.0 mi West 3.5 mph - N/A   Clear
6:53 AM 52.0 °F - 39.9 °F 63% 29.80 in 10.0 mi Calm Calm - N/A   Clear
7:53 AM 59.0 °F - 42.1 °F 53% 29.81 in 10.0 mi SSE 6.9 mph - N/A   Clear
8:53 AM 64.0 °F - 41.0 °F 43% 29.81 in 10.0 mi West 3.5 mph - N/A   Clear
9:53 AM 69.1 °F - 39.9 °F 35% 29.79 in 10.0 mi South 12.7 mph - N/A   Clear
10:53 AM 71.1 °F - 37.0 °F 29% 29.80 in 10.0 mi SSW 18.4 mph 28.8 mph N/A   Clear
11:53 AM 71.1 °F - 35.1 °F 27% 29.80 in 10.0 mi South 13.8 mph 25.3 mph N/A   Partly Cloudy
12:53 PM 73.0 °F - 34.0 °F 24% 29.78 in 10.0 mi SSW 16.1 mph 27.6 mph N/A   Partly Cloudy
1:53 PM 77.0 °F - 28.0 °F 17% 29.76 in 10.0 mi SSW 26.5 mph 33.4 mph N/A   Clear
2:53 PM 77.0 °F - 28.9 °F 17% 29.76 in 10.0 mi SSW 15.0 mph 28.8 mph N/A   Partly Cloudy
3:53 PM 75.9 °F - 25.0 °F 15% 29.74 in 10.0 mi SSW 18.4 mph 29.9 mph N/A   Clear
4:53 PM 75.0 °F - 25.0 °F 16% 29.78 in 10.0 mi SW 21.9 mph 32.2 mph N/A   Clear
5:53 PM 73.9 °F - 26.1 °F 17% 29.78 in 10.0 mi SW 10.4 mph 20.7 mph N/A   Clear
6:53 PM 71.1 °F - 25.0 °F 18% 29.77 in 10.0 mi WNW 6.9 mph - N/A   Clear
7:53 PM 64.9 °F - 23.0 °F 20% 29.81 in 10.0 mi WSW 3.5 mph - N/A   Clear
8:53 PM 55.0 °F - 26.1 °F 33% 29.85 in 10.0 mi East 5.8 mph - N/A   Clear
9:53 PM 50.0 °F - 28.9 °F 44% 29.86 in 10.0 mi ENE 8.1 mph - N/A   Clear
10:53 PM 48.0 °F - 23.0 °F 37% 29.88 in 10.0 mi ENE 6.9 mph - N/A   Clear
11:53 PM 44.1 °F 42.5 °F 25.0 °F 47% 29.90 in 10.0 mi East 3.5 mph - N/A   Clear